Location: Sabalos
(43.2860°N, 0.1414°E)
Time: 21:02:32
(UTC+00:00)

Cosmos 2278 Rocket - Pass Details

Date: 05 July 2020
Orbit: 841 x 845 km, 71.0° (Epoch: 14 August)

Event Time Altitude Azimuth Distance (km) Brightness Sun altitude
Rises 21:01:10 0° 344° (NNW) 3,414 6.6 -11.8°
Reaches altitude 10° 21:04:13 10° 360° (N) 2,475 5.4 -12.2°
Maximum altitude 21:08:32 22° 49° (NE) 1,778 3.9 -12.7°
Drops below altitude 10° 21:12:50 10° 99° (E) 2,463 4.2 -13.2°
Enters shadow 21:12:53 10° 100° (E) 2,478 4.2 -13.2°
